Location: Augirein
(42.9320°N, 0.9181°E)
Time: 20:38:36
(UTC+00:00)

X-37B - Pass Details

Date: 20 June 2021
Orbit: 383 x 392 km, 45.0° (Epoch: 01 July)

Event Time Altitude Azimuth Distance (km) Brightness Sun altitude
Exits shadow 02:01:00 18° 290° (WNW) 1,030 2.6 -17.8°
Maximum altitude 02:03:12 64° 9° (N) 430 1.0 -17.6°
Drops below altitude 10° 02:06:20 10° 92° (E) 1,407 3.8 -17.3°
Sets 02:08:25 0° 95° (E) 2,261 4.8 -17.1°
